Regional Weather Roundup
Issued by NWS Charleston, SC

Current Version | Previous Version | Graphics & Text | Print | Product List | Glossary On
Versions: 1 2 3 4 5 6 7 8 9 10 11 12 13 14 15 16 17 18 19 20 21 22 23 24 25 26 27 28 29 30 31 32 33 34 35 36 37 38 39 40 41 42 43 44 45 46 47 48 49 50
000 ASUS42 KCHS 021912 RWRCHS REGIONAL WEATHER ROUNDUP NATIONAL WEATHER SERVICE CHARLESTON SC 300 PM EDT THU JUL 02 2015 NOTE: "FAIR" INDICATES FEW OR NO CLOUDS BELOW 12,000 FEET WITH NO SIGNIFICANT WEATHER AND/OR OBSTRUCTIONS TO VISIBILITY. NOT ALL STATIONS ARE QUALITY CONTROLLED BY THE NATIONAL WEATHER SERVICE. USE DATA WITH CAUTION...ESPECIALLY DEWPOINT OBSERVATIONS. SCZ027-030-031-034>040-042>050-022000- ...SOUTHEAST SOUTH CAROLINA... CITY SKY/WX TMP DP RH WIND PRES REMARKS N CHARLESTON PTSUNNY 89 72 56 S12 29.97F HX 96 WATERFRONT PAR N/A 81 73 76 S14 29.98F MOUNT PLEASANT FAIR 88 70 55 S20 29.99F HX 92 JOHNS ISLAND FAIR 86 73 66 S14 29.99F HX 93 PINOPOLIS NOT AVBL MONCKS CORNER FAIR 90 70 51 SW6 29.97F HX 95 SUMMERVILLE FAIR 90 72 55 S5 29.98F HX 96 BEAUFORT MCAS PTSUNNY 92 71 50 S9G18 29.98F HX 98 BEAUFORT ARPT FAIR 90 73 58 S5 29.98F HX 98 HILTON HEAD IS MOSUNNY 88 81 79 S7 30.00F HX 105 WALTERBORO CLEAR 91 64 40 W8 29.97F HX 93 ALLENDALE FAIR 91 70 49 VRB3 29.96F HX 97 ...SOUTHERN MIDLANDS AND PEE DEE... CITY SKY/WX TMP DP RH WIND PRES REMARKS GEORGETOWN NOT AVBL KINGSTREE NOT AVBL ORANGEBURG SUNNY 91 68 46 SW16G23 29.96F HX 95 BARNWELL FAIR 91 72 52 SW10 29.97F HX 98 AIKEN NOT AVBL MANNING FAIR 88 64 45 S8 29.95F HAZE COLUMBIA MOSUNNY 92 67 43 SW12 29.91F HX 95 SUMTER MOSUNNY 90 68 48 SW13 29.92F HX 94 FLORENCE PTSUNNY 91 70 49 SW14G21 29.93F HX 96 MYRTLE BEACH CLOUDY 90 68 48 W13G21 29.98F HX 93 N MYRTLE BEACH PTSUNNY 86 74 67 SW12G22 29.96F HX 94 $$ GAZ063-065-086>088-099>101-113>116-118-119-134>141-150-022000- ...SOUTHEAST GEORGIA... CITY SKY/WX TMP DP RH WIND PRES REMARKS SAVANNAH ARPT PTSUNNY 91 70 49 S10G17 29.98F HX 96 HUNTER AAF SUNNY 92 74 55 W9 29.96F HX 101 FORT STEWART MOSUNNY 90 71 53 SW10G17 29.97F HX 96 STATESBORO NOT AVBL SYLVANIA CLEAR 91 74 57 SW7 29.99 HX 101 CLAXTON FAIR 90 73 58 W9 29.98 HX 98 ...CSRA...CENTRAL AND FAR SOUTHEAST GEORGIA... CITY SKY/WX TMP DP RH WIND PRES REMARKS THOMSON PTSUNNY 92 74 56 SW15 29.98 HX 101 AUGUSTA-BUSH MOSUNNY 92 67 43 SW17 29.92F HX 95 AUGUSTA-DANIEL MOSUNNY 93 65 39 VRB6G17 29.94F HX 95 SWAINSBORO MOCLDY 91 75 59 W9 29.99 HX 102 VIDALIA PTSUNNY 90 72 55 SW12G17 29.99 HX 96 EASTMAN FAIR 92 71 51 SW7 30.01 HX 98 HAZLEHURST MOCLDY 89 73 59 W6 29.99 HX 98 ALMA MOSUNNY 89 71 55 W10 30.01F HX 95 WAYCROSS MOSUNNY 92 76 59 W12 30.01 HX 105 JESUP FAIR 93 72 49 W13G18 30.00 HX 100 BAXLEY FAIR 90 72 55 W10 30.00 HX 96 BRUNSWICK MOSUNNY 93 70 46 W7 30.01F HX 99 SAINT SIMONS MOSUNNY 92 68 45 SW13G21 30.00F HX 96 $$ SCZ027-028-034-036>038-045-046-048>050-GAZ119-141-022000- ...LAKE AND SUPPLEMENTAL COASTAL OBSERVATIONS... STATION/POSITION TIME TEMP WIND PRES WAVE SWELL AIR SEA DIR/SP/G HT/PER HT/PER/DIR (UTC) (F) (DEG/KT/KT) (MB) (FT/S) (FT/S/D) UPR LAKE MARION NOT AVBL WINYAH BAY NOT AVBL LAKE MURRAY 1800 87 270/ 12/ 17 1013.2F ACE BASIN NERRS NOT AVBL FORT PULASKI 1800 89 84 230/ 8/ 12 1016.6F SAPELO ISLAND 1800 90 250/ 12 1017.0F $$ ANZ835-935-AMZ111-154-330-350-352-354-370-450-454-472-022000- ...C-MAN AND BUOY OBSERVATIONS... STATION/POSITION TIME TEMP WIND PRES WAVE SWELL AIR SEA DIR/SP/G HT/PER HT/PER/DIR (UTC) (F) (DEG/KT/KT) (MB) (FT/S) (FT/S/D) BUOY 41004 1850 82 82 220/ 16/ 17 1016.3R 4/ 8 2/ 8 BUOY 41008 1850 80 80 180/ 12/ 14 1016.6F 2/ 8 2/120/ 8 FOLLY BEACH CMAN 1800 78 230/ 8/ 11 1016.7R CAPERS NEARSHORE 1808 80 230/ 21/ 27 1017.0R FRIPP NEARSHORE 1800 81 210/ 10/ 12 1016.4S STATION/POSITION TIME TEMP WIND PRES WAVE SWELL AIR SEA DIR/SP/G HT/PER HT/PER/DIR (UTC) (F) (DEG/KT/KT) (MB) (FT/S) (FT/S/D) 5E ST. MARYS GA 1821 80 N/A 2/ 9 FRYING PAN BUOY 1850 81 80 210/ 16/ 17 1016.0F 4/ 6 2/110/ 8 BUOY 41025 1850 82 83 220/ 21/ 23 1013.3F 4/ 6 2/140/ 8 CAPE LOOKOUT NC 1800 83 230/ 15/ 18 1014.1F BUOY 41002 1850 77 80 240/ 16/ 17 1020.8R 6/ 7 3/230/ 7 BUOY 41010 1820 84 85 240/ 10/ 12 1020.5F ST AUGUSTINE FL 1900 74 74 270/ 10/ 12 1019.9R $$

USA.gov is the U.S. government's official web portal to all federal, state and local government web resources and services.